星链-2167 (STARLINK-2167 )

导读 | 星芒AI

STARLINK-2167 是 SpaceX Starlink 项目中的一颗低轨通信卫星,属于第二代 Starlink 卫星(Gen2)系列。该卫星于2023年发射,旨在为全球用户提供高速、低延迟的互联网服务。它运行在约550公里高的轨道上,配备先进通信设备和激光链路,以提升网络性能和卫星间通信效率。STARLINK-2167 是 SpaceX 扩展全球宽带覆盖计划的重要组成部分,支持偏远地区和高需求区域的互联网接入。

基本信息
目录编号:
48559
目录名称:
STARLINK-2167
国际标识:
2021-041G
轨道中心:
EARTH
卫星名称:
星链-2167
卫星全名:
星链-2167 (STARLINK-2167 )
卫星状态:
已陨落 最后检测时间 2024-05-24
发射日期:
2021-05-15 UTC
国别 :
美国 (US)
星等 :
--
轨道信息
数据来源 国际轨道数据
星历时间: 2024-05-24T18:28:24+0800
轨道信息已过期527天
半长轴: 6557.17km
偏心率: 0.0002734
轨道倾角: 53.034°
近地点辐角 250.775°
升交点赤经 157.827°
平近点角 215.838°
近地点: 177.242km
远地点: 180.828km
周期: 88.071分钟
每日圈数: 16.350391
详细信息
固有亮度:
5
最大亮度:
2.5
卫星平台:
Starlink V1.0
覆盖范围:
全球
运营商:
太空探索技术公司
运营商所在国:
美国
制造商(研发单位):
太空探索技术公司
制造商所在国:
美国
使用方式:
暂无
卫星简介
星链(Starlink)计划是由太空探索技术公司(SpaceX)提出的一个巨型低轨卫星互联网星座项目,计划在2019年至2024年间在太空搭建由约1.2万颗卫星组成的“星链”网络,其中1584颗将部署在地球上空550千米处的近地轨道,并从2020年开始工作。该卫星已陨落。